DW0731 Scarsdale NY US current weather conditions

sailwx.info

Wind from 281

Air temperature 12.8° C
Dewpoint 10.7° C

Last reported at 2019-Sep-17 10:00 UTC.
Time now 2019-Sep-17 11:11 UTC

Location: N 40°58' W 073°47'.
View on Google Maps.

See reports from other nearby stations

  
Tides and Currents Weather Stations Pressure Air Temp Water Temp Dewpoint Dewpoint Depression Visibility Wind Speed Wind Dir Waves Ship Positions
date/time (UTC)wind fromknots sea level pressurealtimeterstation pressurevisibilityair tempwater tempwave heightnotes
2019-Sep-17 10:00 281 12.8
2019-Sep-17 09:47 281 13.3
2019-Sep-17 09:32 281 13.3
2019-Sep-17 09:17 281 13.3
2019-Sep-17 09:01 281 13.9
2019-Sep-17 08:46 281 13.9
2019-Sep-17 08:31 281 13.9
2019-Sep-17 08:17 279 14.4
2019-Sep-17 08:01 279 14.4
2019-Sep-17 07:46 279 15.0
2019-Sep-17 07:31 279 15.6
2019-Sep-17 07:16 279 15.6
2019-Sep-17 07:01 060 15.6
2019-Sep-17 06:46 060 15.6
2019-Sep-17 06:31 060 15.6
2019-Sep-17 06:16 060 16.1
2019-Sep-17 06:01 065 16.1
2019-Sep-17 05:46 065 16.7
2019-Sep-17 05:31 065 16.7
2019-Sep-17 05:15 065 17.2
2019-Sep-17 05:00 066 17.2
2019-Sep-17 04:45 055 17.2
2019-Sep-17 04:30 056 17.2
2019-Sep-17 04:15 056 17.2
2019-Sep-17 04:01 056 17.8
2019-Sep-17 03:45 056 17.8
2019-Sep-17 03:30 056 18.3
2019-Sep-17 03:15 056 18.3
2019-Sep-17 03:00 056 18.3
2019-Sep-17 02:45 059 18.3
2019-Sep-17 02:30 059 18.3
2019-Sep-17 02:15 048 18.9
2019-Sep-17 02:00 058 18.9
2019-Sep-17 01:45 064 18.9
2019-Sep-17 01:30 064 18.9
2019-Sep-17 01:15 064 19.4
2019-Sep-17 01:00 064 19.4
2019-Sep-17 00:45 064 20.0
2019-Sep-17 00:30 064 20.6
2019-Sep-17 00:15 064 20.6
2019-Sep-17 00:00 064 21.1
2019-Sep-16 23:45 064 21.7
2019-Sep-16 23:30 064 22.8
2019-Sep-16 23:15 064 22.8
2019-Sep-16 23:00 064 23.3
2019-Sep-16 22:45 064 23.3
2019-Sep-16 22:30 064 23.3
2019-Sep-16 22:15 064 23.3
2019-Sep-16 22:00 064 23.3
2019-Sep-16 21:45 064 23.3
2019-Sep-16 21:30 064 23.3
2019-Sep-16 21:15 070 23.9
2019-Sep-16 21:00 070 23.9
2019-Sep-16 20:45 068 23.9
2019-Sep-16 20:32 053 24.4
2019-Sep-16 20:17 317 24.4
2019-Sep-16 20:03 262 24.4
2019-Sep-16 19:46 263 24.4
2019-Sep-16 19:32 284 25.0
2019-Sep-16 19:16 284 24.4
2019-Sep-16 19:01 314 24.4
2019-Sep-16 18:46 300 25.0
2019-Sep-16 18:31 333 24.4
2019-Sep-16 18:16 277 24.4
2019-Sep-16 18:01 286 25.0
2019-Sep-16 17:46 331 24.4
2019-Sep-16 17:31 059 24.4
2019-Sep-16 17:16 055 24.4
2019-Sep-16 17:01 238 24.4
2019-Sep-16 16:47 072 23.9
2019-Sep-16 16:31 236 23.3
2019-Sep-16 16:16 264 23.3
2019-Sep-16 16:00 038 22.8
2019-Sep-16 15:46 267 22.8
2019-Sep-16 15:31 057 22.2
2019-Sep-16 15:15 005 21.1
2019-Sep-16 15:00 306 21.1
2019-Sep-16 14:45 037 20.6
2019-Sep-16 14:31 065 20.0
2019-Sep-16 14:15 065 19.4
2019-Sep-16 14:00 065 19.4
2019-Sep-16 13:46 065 19.4
2019-Sep-16 13:30 065 19.4
2019-Sep-16 13:15 065 19.4
2019-Sep-16 13:00 065 18.9
2019-Sep-16 12:45 065 18.9
2019-Sep-16 12:30 065 18.9
2019-Sep-16 12:15 065 18.3
2019-Sep-16 12:00 065 18.3
2019-Sep-16 11:46 065 18.3
2019-Sep-16 11:31 065 18.3
2019-Sep-16 11:16 070 18.3
2019-Sep-16 11:02 070 18.3
2019-Sep-16 10:46 302 18.3
2019-Sep-16 10:31 302 18.3
2019-Sep-16 10:16 302 18.9
2019-Sep-16 10:02 302 18.9
2019-Sep-16 09:45 302 18.9
2019-Sep-16 09:31 302 18.9
2019-Sep-16 09:16 302 18.9
2019-Sep-16 09:01 254 19.4
2019-Sep-16 08:46 254 19.4
2019-Sep-16 08:32 254 19.4
2019-Sep-16 08:16 254 19.4
2019-Sep-16 08:01 253 18.9
2019-Sep-16 07:46 253 18.3
2019-Sep-16 07:31 253 18.3
2019-Sep-16 07:15 253 17.8
2019-Sep-16 07:00 253 17.8
2019-Sep-16 06:45 253 17.8
2019-Sep-16 06:31 253 17.8
2019-Sep-16 06:16 253 17.8
2019-Sep-16 06:01 253 17.8
2019-Sep-16 05:45 253 17.8
2019-Sep-16 05:31 253 17.8
2019-Sep-16 05:15 253 17.8
2019-Sep-16 05:00 253 17.8
2019-Sep-16 04:46 253 17.8
2019-Sep-16 04:31 253 17.8
2019-Sep-16 04:15 253 18.3
2019-Sep-16 04:00 253 18.3
2019-Sep-16 03:45 253 18.3
2019-Sep-16 03:30 253 18.9
2019-Sep-16 03:15 253 18.9
2019-Sep-16 03:00 253 18.9
2019-Sep-16 02:45 253 19.4
2019-Sep-16 02:30 253 19.4
2019-Sep-16 02:15 253 19.4
2019-Sep-16 02:00 253 20.0
2019-Sep-16 01:45 253 20.0
2019-Sep-16 01:30 253 20.0
2019-Sep-16 01:15 253 20.0
2019-Sep-16 01:00 253 20.6
2019-Sep-16 00:46 253 20.6
2019-Sep-16 00:30 253 21.1
2019-Sep-16 00:15 253 21.7
2019-Sep-16 00:00 253 22.2
2019-Sep-15 23:45 253 22.8
2019-Sep-15 23:30 253 23.9
2019-Sep-15 23:15 253 24.4
2019-Sep-15 23:00 253 25.6
2019-Sep-15 22:45 253 26.1
2019-Sep-15 22:30 253 26.7
2019-Sep-15 22:15 305 26.7
2019-Sep-15 22:00 301 26.7
2019-Sep-15 21:45 261 27.8
2019-Sep-15 21:30 304 28.3
2019-Sep-15 21:15 298 28.3
2019-Sep-15 21:00 244 28.3
2019-Sep-15 20:45 256 28.3
2019-Sep-15 20:30 315 0 gusting 7 28.9
2019-Sep-15 20:15 253 29.4
2019-Sep-15 20:00 185 29.4
2019-Sep-15 19:45 332 29.4
2019-Sep-15 19:31 221 2 gusting 6 28.9
2019-Sep-15 19:16 239 28.9
2019-Sep-15 19:01 288 28.3
2019-Sep-15 18:46 284 0 gusting 7 28.3
2019-Sep-15 18:31 213 28.3
2019-Sep-15 18:01 277 26.7
2019-Sep-15 17:46 261 0 gusting 6 27.8
2019-Sep-15 17:31 175 27.2
2019-Sep-15 17:17 259 1 gusting 4 26.1
2019-Sep-15 17:01 262 25.6
2019-Sep-15 16:46 255 0 gusting 6 26.1
2019-Sep-15 16:31 240 25.6
2019-Sep-15 16:15 200 25.6
2019-Sep-15 16:00 230 24.4
2019-Sep-15 15:46 248 24.4
2019-Sep-15 15:30 049 0 gusting 6 24.4
2019-Sep-15 15:15 265 0 gusting 4 23.9
2019-Sep-15 15:00 275 23.9
2019-Sep-15 14:45 355 23.9
2019-Sep-15 14:30 063 23.3
2019-Sep-15 14:15 042 22.8
2019-Sep-15 14:01 084 21.7
2019-Sep-15 13:46 049 21.1
2019-Sep-15 13:31 041 20.6
2019-Sep-15 13:16 038 20.0
2019-Sep-15 13:01 059 20.0
2019-Sep-15 12:46 041 19.4
2019-Sep-15 12:31 273 18.9
2019-Sep-15 12:01 257 18.3
2019-Sep-15 11:46 257 18.3
2019-Sep-15 11:31 257 18.3
2019-Sep-15 11:16 257 18.3
2019-Sep-15 11:01 257 18.3